AMX750 MMUN-KMCO

Flight info

Callsign AMX750
Flight time N/A
Altitude 35000
Route NUDAL1A NUDAL UV106 PODON UG765 MAXIM Y262 LINEY DCT KUTNE MUNGI1
Aircraft B738/M-SDE2E3FGHIRWXY/LB1

Departure

Time N/A
Airport Cancún International Airport (MMUN)

Arrival

Time 2026-04-26 16:15
Airport Orlando International Airport (KMCO)
Time Latitude Longitude Altitude Speed Heading
2026-04-26 15:23 24.55993 -81.87673 35006 ft 472 kts 37°
2026-04-26 15:23 24.58387 -81.85206 35009 ft 472 kts 38°
2026-04-26 15:23 24.63165 -81.80223 34989 ft 473 kts 38°
2026-04-26 15:24 24.67926 -81.75203 34990 ft 474 kts 38°
2026-04-26 15:24 24.72687 -81.70166 34989 ft 474 kts 38°
2026-04-26 15:25 24.77414 -81.65162 35000 ft 475 kts 38°
2026-04-26 15:25 24.82176 -81.60118 34994 ft 475 kts 39°
2026-04-26 15:26 24.86948 -81.55057 34980 ft 474 kts 39°
2026-04-26 15:26 24.91447 -81.49719 34981 ft 480 kts 51°
2026-04-26 15:27 24.95129 -81.43570 34984 ft 480 kts 53°
2026-04-26 15:27 24.98737 -81.37428 34985 ft 479 kts 52°
2026-04-26 15:28 25.02403 -81.31295 35004 ft 479 kts 52°
2026-04-26 15:28 25.06085 -81.25180 35002 ft 478 kts 52°
2026-04-26 15:29 25.09760 -81.19072 35008 ft 478 kts 52°
2026-04-26 15:30 25.17093 -81.06845 34996 ft 476 kts 52°
2026-04-26 15:30 25.20718 -81.00781 34995 ft 475 kts 52°
2026-04-26 15:31 25.26272 -80.91730 34982 ft 470 kts 44°
2026-04-26 15:32 25.33018 -80.86044 34988 ft 452 kts 20°
2026-04-26 15:32 25.39736 -80.82764 34993 ft 452 kts 18°
2026-04-26 15:33 25.45503 -80.79946 34987 ft 453 kts 19°
2026-04-26 15:33 25.51225 -80.77094 34986 ft 453 kts 19°
2026-04-26 15:34 25.56975 -80.74207 34985 ft 453 kts 19°
2026-04-26 15:34 25.62690 -80.71334 34981 ft 453 kts 19°
2026-04-26 15:35 25.68442 -80.68443 34990 ft 453 kts 19°
2026-04-26 15:35 25.74232 -80.65716 34968 ft 448 kts 11°
2026-04-26 15:36 25.80279 -80.64236 34984 ft 443 kts
2026-04-26 15:36 25.86332 -80.62944 34981 ft 443 kts
2026-04-26 15:37 25.92347 -80.61586 34983 ft 442 kts
2026-04-26 15:37 25.98379 -80.60162 34995 ft 442 kts
2026-04-26 15:38 26.04398 -80.58725 34979 ft 442 kts
2026-04-26 15:38 26.10419 -80.57286 34978 ft 442 kts
2026-04-26 15:39 26.16438 -80.55848 34979 ft 442 kts
2026-04-26 15:39 26.21444 -80.54651 34980 ft 442 kts
2026-04-26 15:40 26.28460 -80.52973 34980 ft 443 kts
2026-04-26 15:40 26.34517 -80.51522 34985 ft 446 kts
2026-04-26 15:41 26.40598 -80.50063 34989 ft 449 kts
2026-04-26 15:41 26.46691 -80.48600 34988 ft 452 kts
2026-04-26 15:42 26.52857 -80.47117 34984 ft 454 kts
2026-04-26 15:42 26.59043 -80.45630 34931 ft 455 kts
2026-04-26 15:43 26.62198 -80.45332 34314 ft 454 kts 353°
2026-04-26 15:43 26.65260 -80.46010 33669 ft 448 kts 339°
2026-04-26 15:43 26.71091 -80.48459 32242 ft 447 kts 337°
2026-04-26 15:44 26.73989 -80.49712 31520 ft 447 kts 337°
2026-04-26 15:44 26.79769 -80.52167 30057 ft 447 kts 338°
2026-04-26 15:44 26.82683 -80.53383 29159 ft 447 kts 338°
2026-04-26 15:45 26.88511 -80.55797 27624 ft 443 kts 338°
2026-04-26 15:45 26.91385 -80.56986 27021 ft 438 kts 338°
2026-04-26 15:46 26.97051 -80.59334 25848 ft 430 kts 338°
2026-04-26 15:46 26.99844 -80.60493 25275 ft 426 kts 338°
2026-04-26 15:46 27.02615 -80.61645 24707 ft 422 kts 338°
2026-04-26 15:46 27.04437 -80.62403 24335 ft 420 kts 338°
2026-04-26 15:47 27.08093 -80.63923 23696 ft 414 kts 338°
2026-04-26 15:47 27.13422 -80.66143 23423 ft 399 kts 338°
2026-04-26 15:47 27.15978 -80.67212 23373 ft 384 kts 337°
2026-04-26 15:48 27.18406 -80.68230 23361 ft 369 kts 337°
2026-04-26 15:48 27.20774 -80.69223 23358 ft 355 kts 337°
2026-04-26 15:48 27.23045 -80.70176 23352 ft 342 kts 337°
2026-04-26 15:48 27.25233 -80.71095 23355 ft 329 kts 337°
2026-04-26 15:49 27.27346 -80.71983 23352 ft 317 kts 337°
2026-04-26 15:49 27.29369 -80.72833 23353 ft 305 kts 337°
2026-04-26 15:49 27.31348 -80.73667 23369 ft 305 kts 337°
2026-04-26 15:49 27.33392 -80.74529 23398 ft 322 kts 337°
2026-04-26 15:50 27.35540 -80.75435 23395 ft 339 kts 337°
2026-04-26 15:50 27.37758 -80.76371 23381 ft 344 kts 337°
2026-04-26 15:50 27.39963 -80.77316 23359 ft 333 kts 336°
2026-04-26 15:50 27.42094 -80.78235 23285 ft 323 kts 336°
2026-04-26 15:51 27.44142 -80.79119 23303 ft 309 kts 336°
2026-04-26 15:51 27.46121 -80.79979 23327 ft 298 kts 336°
2026-04-26 15:51 27.48051 -80.80820 23380 ft 302 kts 336°
2026-04-26 15:51 27.50092 -80.81620 23375 ft 321 kts 347°
2026-04-26 15:52 27.52398 -80.81735 23420 ft 340 kts 355°
2026-04-26 15:52 27.54718 -80.82334 23391 ft 347 kts 332°
2026-04-26 15:52 27.56884 -80.83555 23374 ft 347 kts 332°
2026-04-26 15:52 27.58287 -80.84386 23272 ft 341 kts 328°
2026-04-26 15:53 27.60963 -80.86192 22855 ft 334 kts 328°
2026-04-26 15:53 27.62973 -80.87500 22229 ft 333 kts 329°
2026-04-26 15:53 27.65014 -80.88740 21549 ft 333 kts 330°
2026-04-26 15:53 27.67080 -80.89923 20984 ft 331 kts 332°
2026-04-26 15:54 27.69140 -80.91057 20453 ft 328 kts 332°
2026-04-26 15:54 27.71192 -80.92160 19958 ft 324 kts 332°
2026-04-26 15:54 27.73200 -80.93226 19437 ft 322 kts 333°
2026-04-26 15:54 27.75223 -80.94293 18909 ft 320 kts 333°
2026-04-26 15:55 27.77263 -80.95366 18399 ft 318 kts 333°
2026-04-26 15:55 27.79261 -80.96417 17834 ft 316 kts 333°
2026-04-26 15:55 27.81229 -80.97451 17285 ft 314 kts 333°
2026-04-26 15:55 27.83204 -80.98489 16743 ft 311 kts 333°
2026-04-26 15:56 27.85162 -80.99519 16208 ft 309 kts 333°
2026-04-26 15:56 27.87107 -81.00542 15685 ft 307 kts 333°
2026-04-26 15:56 27.89046 -81.01562 15162 ft 305 kts 333°
2026-04-26 15:56 27.90963 -81.02571 14647 ft 304 kts 333°
2026-04-26 15:57 27.92858 -81.03569 14153 ft 302 kts 333°
2026-04-26 15:57 27.94786 -81.04510 13649 ft 301 kts 336°
2026-04-26 15:57 27.96752 -81.05340 13114 ft 300 kts 338°
2026-04-26 15:57 27.98049 -81.05872 12766 ft 298 kts 338°
2026-04-26 15:58 28.00652 -81.06944 12088 ft 296 kts 337°
2026-04-26 15:58 28.02576 -81.07748 11589 ft 293 kts 337°
2026-04-26 15:58 28.04486 -81.08553 11094 ft 292 kts 337°
2026-04-26 15:58 28.06382 -81.09355 10604 ft 290 kts 337°
2026-04-26 15:59 28.08269 -81.10155 10182 ft 288 kts 337°
2026-04-26 15:59 28.10136 -81.10968 10073 ft 293 kts 336°
2026-04-26 15:59 28.12028 -81.11803 10014 ft 290 kts 336°
2026-04-26 15:59 28.13896 -81.12627 9989 ft 286 kts 336°
2026-04-26 16:00 28.15719 -81.13431 9979 ft 275 kts 336°
2026-04-26 16:00 28.17485 -81.14210 9983 ft 271 kts 336°
2026-04-26 16:00 28.19283 -81.15006 10003 ft 282 kts 336°
2026-04-26 16:00 28.21117 -81.15816 9994 ft 282 kts 336°
2026-04-26 16:01 28.22912 -81.16607 9990 ft 277 kts 336°
2026-04-26 16:01 28.24713 -81.17400 9983 ft 271 kts 336°
2026-04-26 16:01 28.26420 -81.18153 9954 ft 261 kts 336°
2026-04-26 16:01 28.28151 -81.18652 9764 ft 256 kts 353°
2026-04-26 16:02 28.29926 -81.18694 9394 ft 254 kts 357°
2026-04-26 16:02 28.31700 -81.18673 8965 ft 255 kts 356°
2026-04-26 16:02 28.33466 -81.18673 8647 ft 254 kts 357°
2026-04-26 16:02 28.34638 -81.18690 8375 ft 253 kts 355°
2026-04-26 16:03 28.36984 -81.18733 7856 ft 251 kts 356°
2026-04-26 16:03 28.38719 -81.18734 7513 ft 253 kts 358°
2026-04-26 16:03 28.40460 -81.18719 7225 ft 248 kts 355°
2026-04-26 16:03 28.42186 -81.18752 6940 ft 248 kts 355°
2026-04-26 16:04 28.43903 -81.18807 6555 ft 247 kts 356°
2026-04-26 16:04 28.45633 -81.18817 6151 ft 248 kts 357°
2026-04-26 16:04 28.47326 -81.18804 6003 ft 235 kts 359°
2026-04-26 16:04 28.48936 -81.18798 6048 ft 230 kts 355°
2026-04-26 16:05 28.50560 -81.18853 5956 ft 233 kts 356°
2026-04-26 16:05 28.52148 -81.18875 5922 ft 231 kts 354°
2026-04-26 16:05 28.53764 -81.18866 5702 ft 234 kts 356°
2026-04-26 16:05 28.55390 -81.18939 5419 ft 231 kts 352°
2026-04-26 16:06 28.57001 -81.19045 5155 ft 233 kts 353°
2026-04-26 16:06 28.58613 -81.19187 4932 ft 230 kts 352°
2026-04-26 16:06 28.60200 -81.19334 4617 ft 229 kts 351°
2026-04-26 16:06 28.61802 -81.19494 4291 ft 229 kts 351°
2026-04-26 16:07 28.63397 -81.19629 3917 ft 230 kts 351°
2026-04-26 16:07 28.64951 -81.19792 3632 ft 225 kts 350°
2026-04-26 16:07 28.66520 -81.19968 3243 ft 226 kts 348°
2026-04-26 16:07 28.67922 -81.20624 2988 ft 211 kts 312°
2026-04-26 16:08 28.68597 -81.21948 2964 ft 184 kts 274°
2026-04-26 16:08 28.68621 -81.22893 2988 ft 180 kts 265°
2026-04-26 16:08 28.68473 -81.24776 2996 ft 177 kts 263°
2026-04-26 16:08 28.68346 -81.26182 2984 ft 179 kts 262°
2026-04-26 16:09 28.67877 -81.27474 2953 ft 179 kts 225°
2026-04-26 16:09 28.66804 -81.28140 2978 ft 181 kts 203°
2026-04-26 16:09 28.65678 -81.28762 2993 ft 180 kts 210°
2026-04-26 16:09 28.64538 -81.29361 3002 ft 180 kts 207°
2026-04-26 16:10 28.63332 -81.29784 2963 ft 185 kts 184°
2026-04-26 16:10 28.62487 -81.29761 3012 ft 184 kts 182°
2026-04-26 16:10 28.61216 -81.29756 2968 ft 177 kts 184°
2026-04-26 16:10 28.60024 -81.29755 2953 ft 168 kts 183°
2026-04-26 16:11 28.58853 -81.29747 2956 ft 169 kts 183°
2026-04-26 16:11 28.57679 -81.29737 2749 ft 167 kts 183°
2026-04-26 16:11 28.56540 -81.29724 2538 ft 161 kts 183°
2026-04-26 16:11 28.55437 -81.29711 2358 ft 155 kts 184°
2026-04-26 16:12 28.54371 -81.29701 2135 ft 149 kts 184°
2026-04-26 16:12 28.53338 -81.29691 1996 ft 150 kts 183°
2026-04-26 16:12 28.51248 -81.29668 1575 ft 145 kts 182°
2026-04-26 16:13 28.50223 -81.29658 1360 ft 145 kts 182°
2026-04-26 16:13 28.49208 -81.29648 1175 ft 145 kts 182°
2026-04-26 16:13 28.48198 -81.29637 971 ft 143 kts 180°
2026-04-26 16:13 28.47188 -81.29626 804 ft 150 kts 183°
2026-04-26 16:14 28.46163 -81.29617 661 ft 147 kts 182°
2026-04-26 16:14 28.45160 -81.29566 500 ft 141 kts 179°
2026-04-26 16:14 28.43252 -81.29584 109 ft 136 kts 182°
2026-04-26 16:15 28.42530 -81.29565 99 ft 70 kts 180°
2026-04-26 16:15 28.42321 -81.29565 100 ft 6 kts 161°
2026-04-26 16:15 28.42293 -81.29568 98 ft 0 kts 224°
2026-04-26 16:16 28.42278 -81.29645 98 ft 11 kts 276°
2026-04-26 16:16 28.42283 -81.29738 100 ft 11 kts 270°
2026-04-26 16:16 28.42282 -81.29847 103 ft 15 kts 268°
2026-04-26 16:16 28.42280 -81.29986 103 ft 18 kts 270°
2026-04-26 16:17 28.42301 -81.30128 102 ft 12 kts 318°
2026-04-26 16:17 28.42397 -81.30137 102 ft 16 kts
2026-04-26 16:17 28.42479 -81.30084 102 ft 11 kts 27°
2026-04-26 16:17 28.42518 -81.30061 102 ft 1 kts 27°